Regional Weather Roundup
Issued by NWS

Home | Current Version | Previous Version | Graphics & Text | Print | Product List | Glossary On
Versions: 1 2 3 4 5 6 7 8 9 10 11 12 13 14 15 16 17 18 19 20 21 22 23 24 25 26 27 28 29 30 31 32 33 34 35 36 37 38 39 40 41 42 43 44 45 46 47 48 49 50
000
ASUS44 KMEG 222110
RWRTN
TENNESSEE HOURLY STATE WEATHER ROUNDUP
NATIONAL WEATHER SERVICE MEMPHIS TN
400 PM CDT FRI AUG 22 2014

TNZ002-004-019-021-049-052-054-088>092-222200-
WEST TENNESSEE

CITY           SKY/WX    TMP DP  RH WIND       PRES   REMARKS
MEMPHIS INTL   MOSUNNY   96  72  45 SW10G16   30.02F HX 104
NWS MEMPHIS      N/A     94 N/A N/A MISG        N/A
JACKSON        MOSUNNY   92  73  53 SW6       30.02F HX 100
DYERSBURG      MOSUNNY   93  70  46 S5        30.00F HX  99
UNION CITY     SUNNY     91  75  59 S8        29.98F HX 102
PARIS          SUNNY     90  73  58 W10       30.02F HX  98
HUNTINGDON     MOSUNNY   89  74  61 VRB5      30.01F HX  97
LEXINGTON      PTSUNNY   93  70  46 SW8       30.01F HX  99
SAVANNAH       SUNNY     91  72  52 W5        30.03F HX  98
$$

TNZ008-025-027-028-033-062-065-066-222200-
NORTH MIDDLE TENNESSEE

CITY           SKY/WX    TMP DP  RH WIND       PRES   REMARKS
NASHVILLE      PTSUNNY   92  73  53 SW7       30.02F HX 100
DICKSON        PTSUNNY   88  72  58 W10       30.04F HX  94
PORTLAND       PTSUNNY   90  73  58 SW8       30.01F HX  98
CLARKSVILLE    PTSUNNY   89  75  63 VRB6      30.00F HX  99
LEBANON        PTSUNNY   91  74  57 SW3       30.01F HX 100
SMYRNA         PTSUNNY   92  73  53 NW8       30.02F HX 100
MURFREESBORO   PTSUNNY   93  70  47 VRB5      30.01F HX  98
COOKEVILLE     SUNNY     91  75  59 NW5       30.05S HX 102
LIVINGSTON     SUNNY     87  71  58 SW6       30.06  HX  92
GALLATIN       PTSUNNY   92  76  59 VRB6      30.02F HX 104
CROSSVILLE     SUNNY     84  69  60 VRB6      30.11F
$$

TNZ061-075-076-078-094-096-097-222200-
SOUTH MIDDLE TENNESSEE

CITY           SKY/WX    TMP DP  RH WIND       PRES   REMARKS
LEWISBURG      PTSUNNY   93  71  48 CALM      30.03F HX  99
FAYETTEVILLE   MOSUNNY   91  68  46 SW7       30.05F HX  95
TULLAHOMA      SUNNY     90  70  51 W7        30.07F HX  95
WINCHESTER     SUNNY     91  72  52 W5        30.05F HX  98
MCMINNVILLE    MOSUNNY   90  77  66 S7        30.05F HX 102
COLUMBIA       MOSUNNY   93  73  52 W7        30.02F HX 102
SHELBYVILLE    SUNNY     93  73  52 SW8       30.04F HX 102
$$

TNZ017-018-042-046-047-222200-
NORTHEAST TENNESSEE

CITY           SKY/WX    TMP DP  RH WIND       PRES   REMARKS
TRI CITIES     MOSUNNY   88  67  49 W13       30.05S HX  91
ELIZABETHTON   PTCLDY    84  68  58 W7        30.05S
$$

TNZ012-013-036-069-073-074-222200-
CENTRAL EAST TENNESSEE

CITY           SKY/WX    TMP DP  RH WIND       PRES   REMARKS
KNOXVILLE      MOSUNNY   89  70  53 SW9       30.03  HX  94
OAK RIDGE      MOSUNNY   91  69  48 VRB5      30.04F HX  96
GATLINBURG     CLEAR     88  72  58 VRB3      30.03F HX  94
MORRISTOWN     CLEAR     90  72  55 SW10      30.06S HX  96
$$

TNZ083-085-099-222200-
SOUTHEAST TENNESSEE

CITY           SKY/WX    TMP DP  RH WIND       PRES   REMARKS
CHATTANOOGA    PTSUNNY   93  67  42 NW5       30.03F HX  96
$$

SKY/WX REPORTED AS FAIR MEANS FEW OR NO CLOUDS BELOW
12 THOUSAND FEET.



USA.gov is the U.S. government's official web portal to all federal, state and local government web resources and services.